Home   Weather   Palikir   Past weeks

Flag for Micronesia Past Weather in Palikir, Pohnpei, Micronesia — Yesterday and Last 2 Weeks

Now
86 °F

More clouds than sun.


Feels Like: 97 °F
Forecast: 80 / 84 °F
Wind: 12 mph from Northeast

Location: Pohnpei

Current Time: Apr 24, 2017 at 1:08:35 pm

Latest Report: Apr 24, 2017 at 11:50 am


Visibility: 15 mi

Pressure: 29.90 "Hg

Humidity: 75%

Dew Point: 77 °F

Location of PalikirLocation

Past Weather in Palikir — Graph

°F

Palikir Temperature Yesterday

Maximum temperature yesterday: 87 °F (at 1:54 pm)
Minimum temperature yesterday: 75 °F (at 6:52 am)
Average temperature yesterday: 80 °F

High & Low Weather Summary for the Past Weeks

 TemperatureHumidityPressure
High90 °F (Apr 20, 1:50 pm)99% (Apr 20, 4:54 pm)29.97 "Hg (Apr 20, 4:54 pm)
Low74 °F (Apr 21, 5:54 am)57% (Apr 23, 3:53 pm)29.72 "Hg (Apr 9, 3:50 pm)
Average82 °F82%29.85 "Hg
* Reported Apr 9 10:34 am — Apr 24 10:50 am, Palikir, Weather by CustomWeather, © 2017

Note: Actual official high and low records may vary slightly from our data, if they occured in-between our weather recording intervals... More about our weather records

Advertising

Palikir Weather History for the Previous 24 Hours

Scroll right to see more
 ConditionsComfort  
Time TempWeatherWind HumidityBarometerVisibility
10:50 am
Mon, Apr 24
87 °FPartly sunny.9 mph74%29.93 "Hg15 mi
9:50 am86 °FPartly sunny.6 mph77%29.94 "Hg15 mi
8:50 am84 °FPartly sunny.7 mph79%29.94 "Hg15 mi
7:50 am80 °FBroken clouds.5 mph85%29.93 "Hg15 mi
6:53 am75 °FBroken clouds.6 mph95%29.90 "Hg15 mi
5:52 am75 °FMostly cloudy.6 mph93%29.89 "Hg15 mi
4:53 am74 °FMostly cloudy.6 mph94%29.86 "Hg15 mi
3:53 am75 °FMostly cloudy.5 mph95%29.85 "Hg15 mi
2:51 am75 °FMostly cloudy.6 mph97%29.86 "Hg15 mi
1:52 am76 °FMostly cloudy.5 mph96%29.87 "Hg15 mi
12:56 am77 °FMostly cloudy.6 mph94%29.88 "Hg15 mi
11:54 pm
Sun, Apr 23
78 °FMostly cloudy.5 mph93%29.93 "Hg15 mi
10:52 pm78 °FSprinkles. Mostly cloudy.7 mph92%29.94 "Hg10 mi
9:52 pm79 °FSprinkles. Mostly cloudy.13 mph83%29.96 "Hg7 mi
8:51 pm82 °FSprinkles. Mostly cloudy.8 mph83%29.93 "Hg15 mi
7:51 pm82 °FOvercast.8 mph81%29.90 "Hg15 mi
6:52 pm82 °FMostly cloudy.6 mph79%29.88 "Hg15 mi
5:53 pm83 °FMostly cloudy.7 mph75%29.85 "Hg15 mi
4:53 pm84 °FMore clouds than sun.6 mph68%29.82 "Hg15 mi
3:53 pm87 °FMostly cloudy.9 mph57%29.80 "Hg15 mi
2:54 pm87 °FCloudy.12 mph60%29.80 "Hg15 mi
1:54 pm87 °FMostly cloudy.7 mph73%29.82 "Hg15 mi
Weather by CustomWeather, © 2017

See weather overviewHow to use our weather pages